User: anonymous   Login
Location: Ceske Budejovice
(48.9830°N, 14.4670°E)
Time: 20:25:13
(UTC+02:00)
Language:

ISS - Orbit

View from above orbital plane
View from above orbital plane
View from above satellite
View from above satellite

Ground track
Ground track

The orbit data is extracted from the following two-line orbital elements,

1 25544U 98067A   25174.53654762  .00010049  00000-0  18249-3 0  9998
2 25544  51.6388 275.6025 0001861 276.5590 196.0283 15.50206624516147
Epoch (UTC): 23 June 2025 12:52:37
Eccentricity: 0.0001861
inclination: 51.6388°
perigee height: 415 km
apogee height: 417 km
right ascension of ascending node: 275.6025°
argument of perigee: 276.5590°
revolutions per day: 15.50206624
mean anomaly at epoch: 196.0283°
orbit number at epoch: 51614

The dashed part of the orbit path shows where the satellite is in the earth's shadow,  

DLR